Regional Weather Roundup
Issued by NWS

Home | Current Version | Previous Version | Graphics & Text | Print | Product List | Glossary On
Versions: 1 2 3 4 5 6 7 8 9 10 11 12 13 14 15 16 17 18 19 20 21 22 23 24 25 26 27
000
ASUS45 KPSR 272210
RWRAZ

ARIZONA HOURLY REGIONAL WEATHER ROUNDUP
NATIONAL WEATHER SERVICE PHOENIX AZ
300 PM MST TUE SEP 27 2016

NOTE: FAIR INDICATES FEW OR NO CLOUDS BELOW 12,000 FEET WITH NO
SIGNIFICANT WEATHER AND/OR OBSTRUCTIONS TO VISIBILITY.

AZZ001>003-036-272300-
NORTHWEST ARIZONA

CITY           SKY/WX    TMP DP  RH WIND       PRES   REMARKS
BULLHEAD CITY  FAIR      86  50  28 SW5       29.92F
KINGMAN        CLOUDY    80  50  34 E10       30.06F
$$

AZZ004>008-015-016-018-272300-
NORTH CENTRAL ARIZONA

CITY           SKY/WX    TMP DP  RH WIND       PRES   REMARKS
GRAND CANYON   FAIR      67  43  41 E16       30.27F
PRESCOTT       FAIR      69  46  43 SE8       30.14F
FLAGSTAFF      FAIR      64  45  49 NE8       30.24F
PAYSON         FAIR      70  46  43 VRB7G14   30.18F
PAGE           FAIR      81  31  16 VRB3      30.12F
$$

AZZ009>014-017-272300-
NORTHEAST ARIZONA

CITY           SKY/WX    TMP DP  RH WIND       PRES   REMARKS
WINSLOW        FAIR      77  46  33 VRB6      30.14F
SAINT JOHNS    PTSUNNY   73  45  36 N12       30.15F
WINDOW ROCK    FAIR      73  39  29 VRB6      30.26F
SHOW LOW       CLOUDY    66  45  45 W3        30.21F
$$

AZZ023-272300-
GREATER PHOENIX AREA

CITY           SKY/WX    TMP DP  RH WIND       PRES   REMARKS
PHOENIX        PTSUNNY   85  50  29 NE3       29.90F
BUCKEYE        FAIR      86  50  28 E15G21    29.92F
GLENDALE       PTSUNNY   88  52  29 E10       29.93F
LUKE AFB       FAIR      87  50  28 NE8       29.90F
DEER VALLEY    FAIR      84  48  28 E9        29.92F
SCOTTSDALE     FAIR      86  47  25 E9G18     29.94F
MESA-FALCON    PTSUNNY  N/A N/A N/A N16       29.90F
MESA-GATEWAY   PTSUNNY   88  48  25 S12G17    29.92F
CHANDLER       MOSUNNY   88  50  27 E14       29.91F
$$

AZZ027-028-272300-
SOUTHWEST MARICOPA COUNTY AND PINAL COUNTY

CITY           SKY/WX    TMP DP  RH WIND       PRES   REMARKS
CASA GRANDE    FAIR      88  50  27 E14G21    29.92F
GILA BEND      MOSUNNY   89  49  25 NE10G17   29.86F
$$

AZZ503-504-507>509-272300-
SOUTHEAST ARIZONA

CITY           SKY/WX    TMP DP  RH WIND       PRES   REMARKS
TUCSON         FAIR      82  53  36 E14G24    29.98F
DAVIS-MONTHAN  FAIR      82  53  36 VRB2      29.98F
RYAN FIELD     MOSUNNY   82  54  36 E21G26    29.96F
NOGALES        PTSUNNY   75  54  47 VRB6      30.02F
SIERRA VISTA   PTSUNNY   70  55  58 E7        30.11F
DOUGLAS        FAIR      77  53  43 E14G20    30.08F
SAFFORD        FAIR      78  46  32 SE8       30.06F
$$

AZZ020-021-025-026-031-272300-
SOUTHWEST ARIZONA

CITY           SKY/WX    TMP DP  RH WIND       PRES   REMARKS
YUMA           PTSUNNY   92  50  23 NE7       29.84F
$$

CAZ031-033-041-043-047-048-061-272300-
SOUTHERN CALIFORNIA

CITY           SKY/WX    TMP DP  RH WIND       PRES   REMARKS
DOWNTOWN L.A.  FAIR      92  49  22 W10       29.80F
L.A. AIRPORT   FAIR      87  51  28 W15       29.81F
SAN DIEGO      PTSUNNY   82  57  42 S6        29.84S
BURBANK        FAIR      94  44  17 S13       29.83S
ONTARIO        FAIR      96  40  14 S12       29.83F
RIVERSIDE      FAIR      96  41  15 S10       29.82F
PALM SPRINGS   PTSUNNY   88  50  27 S6        29.90S
EL CENTRO NAS  FAIR      94  49  21 NE10      29.85F
IMPERIAL       FAIR      95  54  25 MISG      29.82F
BLYTHE         FAIR      93  50  23 N7        29.86F
NEEDLES        FAIR      88  51  28 N6        29.92F
$$

NVZ020-UTZ003-272300-
SOUTHERN NEVADA-UTAH

CITY           SKY/WX    TMP DP  RH WIND       PRES   REMARKS
LAS VEGAS      PTSUNNY   89  35  14 E8        29.97F
SALT LAKE CITY FAIR      76  50  40 NW8       30.14F
$$

NMZ009-TXZ055-272300-
NEW MEXICO-WEST TEXAS

CITY           SKY/WX    TMP DP  RH WIND       PRES   REMARKS
ALBUQUERQUE    MOSUNNY   75  34  22 CALM      30.20F
EL PASO        MOSUNNY   75  44  33 N7        30.15F
$$


........................KEY........................
SKY/WX - SKY CONDITION/WEATHER
TMP    - TEMPERATURE IN FAHRENHEIT
DP     - DEW POINT IN FAHRENHEIT
RH     - RELATIVE HUMIDITY IN PERCENT
WIND   - DIRECTION AND SPEED IN MILES PER HOUR (MPH)
VRB    - VARIABLE WIND DIRECTION
PRES   - MEAN SEA LEVEL PRESSURE IN INCHES OF MERCURY
         F - FALLING PRESSURE   R - RISING PRESSURE
         S - STEADY PRESSURE
VSB    - VISIBILITY IN MILES
HX     - HEAT INDEX IN FAHRENHEIT
WCI    - WIND CHILL INDEX IN FAHRENHEIT
TC     - TEMPERATURE IN CELSIUS WHICH IS ALSO KNOWN AS
         TEMPERATURE IN CENTIGRADE
AFB    - AIR FORCE BASE
         LUKE AFB IS LUKE AIR FORCE BASE
         DAVIS-MONTHAN IS DAVIS-MONTHAN AIR FORCE BASE
NAS    - NAVAL AIR STATION
         EL CENTRO NAS IS EL CENTRO NAVAL AIR STATION
N/A    - NOT AVAILABLE





USA.gov is the U.S. government's official web portal to all federal, state and local government web resources and services.